Location: Rounton
(54.4000°N, 1.3500°W)
Time: 07:11:36
(UTC+00:00)

Vanguard 1 - Pass Details

Date: 01 December 2021
Orbit: 652 x 3830 km, 34.2° (Epoch: 16 January)

Event Time Altitude Azimuth Distance (km) Brightness Sun altitude
Rises 01:48:58 0° 236° (WSW) 7,840 - -50.9°
Reaches altitude 10° 01:54:49 10° 230° (SW) 6,919 - -50.3°
Maximum altitude 02:14:41 39° 173° (S) 4,525 - -48.1°
Exits shadow 02:17:21 37° 159° (SSE) 4,441 13.1 -47.8°
Drops below altitude 10° 02:29:46 10° 113° (ESE) 5,329 14.0 -46.3°
Sets 02:33:31 0° 106° (ESE) 5,954 14.5 -45.8°
